When you browse on this site, cookies collect data to enhance your experience and personalize the content and advertising you see.
Visit our Privacy Policy to learn more. By continuing to use the site, you agree to this use of cookies and data.
EN

Hourly Weather Hrestivka (Kirovckoe)

Today, 11 July, Saturday

Time Temperature Precipitation Wind Pressure Humidity
00:00 +18°C° 0 mm 3 mps 744 mmHg 65%
01:00 +18°C° 0 mm 3 mps 744 mmHg 66%
02:00 +17°C° 0 mm 3 mps 744 mmHg 68%
03:00 +17°C° 0 mm 2 mps 744 mmHg 69%
04:00 +17°C° 0 mm 3 mps 744 mmHg 70%
05:00 +17°C° 0 mm 3 mps 744 mmHg 70%
06:00 +17°C° 0 mm 3 mps 744 mmHg 71%
07:00 +19°C° 0 mm 3 mps 745 mmHg 65%
08:00 +21°C° 0 mm 4 mps 745 mmHg 60%
09:00 +23°C° 0 mm 4 mps 745 mmHg 55%
10:00 +25°C° 0 mm 4 mps 745 mmHg 50%
11:00 +26°C° 0 mm 4 mps 744 mmHg 46%
12:00 +27°C° 0 mm 4 mps 744 mmHg 41%
13:00 +27°C° 0 mm 4 mps 744 mmHg 40%
14:00 +28°C° 0 mm 4 mps 744 mmHg 38%
15:00 +29°C° 0 mm 4 mps 743 mmHg 36%
16:00 +28°C° 0 mm 4 mps 743 mmHg 38%
17:00 +28°C° 0 mm 4 mps 743 mmHg 40%
18:00 +28°C° 0 mm 4 mps 742 mmHg 42%
19:00 +26°C° 0 mm 4 mps 742 mmHg 47%
20:00 +23°C° 0 mm 4 mps 742 mmHg 52%
21:00 +22°C° 0 mm 3 mps 742 mmHg 57%
22:00 +21°C° 0 mm 3 mps 742 mmHg 60%
23:00 +20°C° 0 mm 3 mps 741 mmHg 63%

Tomorrow, 12 July, Sunday

Time Temperature Precipitation Wind Pressure Humidity
00:00 +20°C° 0 mm 3 mps 741 mmHg 66%
01:00 +19°C° 0 mm 4 mps 741 mmHg 67%
02:00 +19°C° 0 mm 4 mps 741 mmHg 69%
03:00 +18°C° 0 mm 4 mps 741 mmHg 70%
04:00 +19°C° 0 mm 4 mps 740 mmHg 72%
05:00 +19°C° 0 mm 4 mps 740 mmHg 74%
06:00 +19°C° 0 mm 4 mps 740 mmHg 75%
07:00 +21°C° 0 mm 4 mps 740 mmHg 72%
08:00 +23°C° 0 mm 5 mps 740 mmHg 69%
09:00 +26°C° 0 mm 5 mps 739 mmHg 65%
10:00 +27°C° 0.1 mm 5 mps 739 mmHg 60%
11:00 +29°C° 0.1 mm 4 mps 739 mmHg 55%
12:00 +32°C° 0.1 mm 4 mps 739 mmHg 50%
13:00 +32°C° 0.1 mm 4 mps 738 mmHg 48%
14:00 +33°C° 0.1 mm 4 mps 738 mmHg 46%
15:00 +33°C° 0.1 mm 3 mps 738 mmHg 44%
16:00 +33°C° 0.1 mm 3 mps 737 mmHg 47%
17:00 +31°C° 0.1 mm 3 mps 737 mmHg 49%
18:00 +30°C° 0.1 mm 3 mps 736 mmHg 52%
19:00 +29°C° 1.1 mm 3 mps 736 mmHg 59%
20:00 +27°C° 1.1 mm 2 mps 736 mmHg 66%
21:00 +25°C° 1.1 mm 2 mps 736 mmHg 73%
22:00 +24°C° 2 mm 3 mps 736 mmHg 76%
23:00 +24°C° 2 mm 3 mps 735 mmHg 80%

Day after tomorrow, 13 July, Monday

Time Temperature Precipitation Wind Pressure Humidity
00:00 +22°C° 2 mm 3 mps 735 mmHg 83%
01:00 +22°C° 0 mm 3 mps 735 mmHg 84%
02:00 +21°C° 0 mm 2 mps 735 mmHg 85%
03:00 +22°C° 0 mm 1 mps 734 mmHg 85%
04:00 +22°C° 0.1 mm 1 mps 734 mmHg 85%
05:00 +22°C° 0.1 mm 1 mps 734 mmHg 84%
06:00 +23°C° 0.1 mm 1 mps 734 mmHg 83%
07:00 +24°C° 0.1 mm 1 mps 734 mmHg 77%
08:00 +25°C° 0.1 mm 1 mps 734 mmHg 72%
09:00 +26°C° 0.1 mm 2 mps 734 mmHg 66%
10:00 +27°C° 0 mm 1 mps 733 mmHg 60%
11:00 +29°C° 0 mm 1 mps 733 mmHg 54%
12:00 +30°C° 0 mm 1 mps 733 mmHg 47%
13:00 +31°C° 0 mm 2 mps 733 mmHg 45%
14:00 +32°C° 0 mm 2 mps 733 mmHg 42%
15:00 +34°C° 0 mm 3 mps 733 mmHg 40%
16:00 +30°C° 1.7 mm 3 mps 733 mmHg 52%
17:00 +27°C° 1.7 mm 4 mps 732 mmHg 64%
18:00 +23°C° 1.7 mm 5 mps 731 mmHg 76%
19:00 +22°C° 1.4 mm 4 mps 732 mmHg 75%
20:00 +23°C° 1.4 mm 2 mps 732 mmHg 74%
21:00 +23°C° 1.4 mm 1 mps 732 mmHg 73%
22:00 +21°C° 0.4 mm 2 mps 732 mmHg 76%
23:00 +21°C° 0.4 mm 2 mps 732 mmHg 80%

14 July, Tuesday

Time Temperature Precipitation Wind Pressure Humidity
00:00 +21°C° 0.4 mm 3 mps 732 mmHg 83%
01:00 +21°C° 0 mm 3 mps 732 mmHg 84%
02:00 +20°C° 0 mm 3 mps 732 mmHg 84%
03:00 +20°C° 0 mm 2 mps 732 mmHg 85%
04:00 +20°C° 0.3 mm 2 mps 732 mmHg 85%
05:00 +21°C° 0.3 mm 1 mps 732 mmHg 84%
06:00 +21°C° 0.3 mm 1 mps 732 mmHg 84%
07:00 +22°C° 0.5 mm 1 mps 732 mmHg 80%
08:00 +23°C° 0.5 mm 1 mps 732 mmHg 76%
09:00 +24°C° 0.5 mm 2 mps 733 mmHg 71%
10:00 +24°C° 2.7 mm 2 mps 733 mmHg 75%
11:00 +23°C° 2.7 mm 2 mps 733 mmHg 80%
12:00 +21°C° 2.7 mm 3 mps 733 mmHg 84%
13:00 +24°C° 0.4 mm 3 mps 733 mmHg 78%
14:00 +25°C° 0.4 mm 4 mps 733 mmHg 72%
15:00 +26°C° 0.4 mm 4 mps 734 mmHg 66%
16:00 +25°C° 0.7 mm 5 mps 734 mmHg 69%
17:00 +23°C° 0.7 mm 6 mps 734 mmHg 71%
18:00 +22°C° 0.7 mm 6 mps 734 mmHg 74%
19:00 +21°C° 0 mm 6 mps 734 mmHg 78%
20:00 +20°C° 0 mm 5 mps 734 mmHg 81%
21:00 +17°C° 0 mm 5 mps 735 mmHg 84%
22:00 +18°C° 0 mm 4 mps 735 mmHg 84%
23:00 +18°C° 0 mm 4 mps 735 mmHg 85%

15 July, Wednesday

Time Temperature Precipitation Wind Pressure Humidity
00:00 +17°C° 0 mm 4 mps 735 mmHg 85%
01:00 +17°C° 0 mm 4 mps 735 mmHg 84%
02:00 +16°C° 0 mm 5 mps 735 mmHg 83%
03:00 +16°C° 0 mm 5 mps 735 mmHg 82%
04:00 +16°C° 0 mm 5 mps 736 mmHg 82%
05:00 +16°C° 0 mm 5 mps 736 mmHg 83%
06:00 +16°C° 0 mm 5 mps 736 mmHg 83%
07:00 +17°C° 0 mm 5 mps 736 mmHg 80%
08:00 +19°C° 0 mm 5 mps 736 mmHg 77%
09:00 +19°C° 0 mm 6 mps 737 mmHg 74%
10:00 +21°C° 0 mm 6 mps 737 mmHg 67%
11:00 +22°C° 0 mm 6 mps 737 mmHg 60%
12:00 +24°C° 0 mm 6 mps 737 mmHg 52%
13:00 +24°C° 0 mm 6 mps 738 mmHg 51%
14:00 +24°C° 0 mm 6 mps 738 mmHg 49%
15:00 +26°C° 0 mm 6 mps 738 mmHg 47%
16:00 +24°C° 0 mm 6 mps 738 mmHg 50%
17:00 +23°C° 0 mm 5 mps 738 mmHg 52%
18:00 +23°C° 0 mm 5 mps 738 mmHg 55%
19:00 +21°C° 0 mm 4 mps 738 mmHg 60%
20:00 +20°C° 0 mm 3 mps 738 mmHg 65%
21:00 +18°C° 0 mm 3 mps 739 mmHg 71%
22:00 +17°C° 0 mm 2 mps 739 mmHg 72%
23:00 +16°C° 0 mm 1 mps 739 mmHg 73%

16 July, Thursday

Time Temperature Precipitation Wind Pressure Humidity
00:00 +16°C° 0 mm 1 mps 739 mmHg 75%
01:00 +15°C° 0 mm 1 mps 739 mmHg 75%
02:00 +15°C° 0 mm 1 mps 739 mmHg 76%
03:00 +15°C° 0 mm 2 mps 739 mmHg 77%
04:00 +15°C° 0 mm 2 mps 739 mmHg 76%
05:00 +15°C° 0 mm 2 mps 739 mmHg 75%
06:00 +16°C° 0 mm 2 mps 739 mmHg 74%
07:00 +17°C° 0 mm 3 mps 739 mmHg 69%
08:00 +18°C° 0 mm 3 mps 739 mmHg 63%
09:00 +20°C° 0 mm 4 mps 739 mmHg 58%
10:00 +21°C° 0 mm 4 mps 739 mmHg 54%
11:00 +21°C° 0 mm 4 mps 739 mmHg 50%
12:00 +22°C° 0 mm 4 mps 739 mmHg 47%
13:00 +22°C° 0 mm 4 mps 739 mmHg 47%
14:00 +22°C° 0 mm 4 mps 739 mmHg 47%
15:00 +22°C° 0 mm 4 mps 739 mmHg 48%
16:00 +22°C° 0 mm 4 mps 739 mmHg 48%
17:00 +22°C° 0 mm 3 mps 739 mmHg 48%
18:00 +22°C° 0 mm 3 mps 739 mmHg 48%
19:00 +21°C° 0 mm 2 mps 739 mmHg 53%
20:00 +20°C° 0 mm 2 mps 739 mmHg 58%
21:00 +18°C° 0 mm 2 mps 739 mmHg 64%
22:00 +19°C° 0 mm 1 mps 739 mmHg 65%
23:00 +19°C° 0 mm 1 mps 739 mmHg 67%
Show more